{"data":{"norad_id":55465,"epoch":"2026-09-19T10:16:02.809056Z","epoch_age_seconds":193085,"freshness":"STALE","line1":"1 55465U 23015S   26262.42781029  .00017932  00000+0  65915-3 0  9997","line2":"2 55465  43.0045 314.4357 0001410 180.4677 179.6174 15.27601565200352","mean_motion":15.27601565,"eccentricity":0.000141,"inclination_deg":43.0045,"raan_deg":314.4357,"arg_perigee_deg":180.4677,"mean_anomaly_deg":179.6174,"bstar":0.00065915,"rev_number":20035,"period_min":94.265417959296,"perigee_km":482.01710529653,"apogee_km":483.95194156614,"semimajor_km":6861.1215234313,"source":"CELESTRAK","updated_at":"2026-09-21T09:00:33.230208Z"}}